Time,TemperatureF,DewpointF,PressureIn,WindDirection,WindDirectionDegrees,WindSpeedMPH,WindSpeedGustMPH,Humidity,HourlyPrecipIn,Conditions,Clouds,dailyrainin,SoftwareType,DateUTC
2013-03-02 00:00:00,41.8,29.7,29.88,ENE,68,0.2,0.2,62,0.00,,,0.00,WUHU216HW,2013-03-02 05:00:00,
2013-03-02 00:05:00,41.6,29.5,29.88,ENE,68,0.2,0.2,62,0.00,,,0.00,WUHU216HW,2013-03-02 05:05:00,
2013-03-02 00:30:00,39.2,28.4,29.88,ENE,68,0.0,0.0,65,0.00,,,0.00,WUHU216HW,2013-03-02 05:30:00,
2013-03-02 00:35:00,39.2,28.4,29.88,ENE,68,0.0,0.0,65,0.00,,,0.00,WUHU216HW,2013-03-02 05:35:00,
2013-03-02 01:00:00,38.0,28.4,29.89,North,0,0.0,0.0,68,0.00,,,0.00,WUHU216HW,2013-03-02 06:00:00,
2013-03-02 01:05:00,38.0,28.4,29.89,North,0,0.0,0.0,68,0.00,,,0.00,WUHU216HW,2013-03-02 06:05:00,
2013-03-02 01:30:00,40.5,30.3,29.89,NE,45,0.4,0.4,67,0.00,,,0.00,WUHU216HW,2013-03-02 06:30:00,
2013-03-02 01:35:00,40.5,30.3,29.89,NE,45,0.4,0.4,67,0.00,,,0.00,WUHU216HW,2013-03-02 06:35:00,
2013-03-02 02:00:00,40.3,29.8,29.89,NNE,23,0.2,0.2,66,0.00,,,0.00,WUHU216HW,2013-03-02 07:00:00,
2013-03-02 02:05:00,40.3,29.8,29.89,NNE,23,0.2,0.2,66,0.00,,,0.00,WUHU216HW,2013-03-02 07:05:00,
2013-03-02 02:30:00,40.0,29.4,29.88,North,0,0.4,0.4,66,0.00,,,0.00,WUHU216HW,2013-03-02 07:30:00,
2013-03-02 02:35:00,40.0,29.4,29.88,North,0,0.4,0.4,66,0.00,,,0.00,WUHU216HW,2013-03-02 07:35:00,
2013-03-02 03:00:00,40.0,29.4,29.88,NNE,23,0.4,0.4,66,0.00,,,0.00,WUHU216HW,2013-03-02 08:00:00,
2013-03-02 03:05:00,40.0,29.4,29.88,NNE,23,0.4,0.4,66,0.00,,,0.00,WUHU216HW,2013-03-02 08:05:00,
2013-03-02 03:30:00,39.8,28.9,29.87,NNE,23,0.2,0.2,65,0.00,,,0.00,WUHU216HW,2013-03-02 08:30:00,
2013-03-02 03:35:00,39.8,28.9,29.87,NNE,23,0.2,0.2,65,0.00,,,0.00,WUHU216HW,2013-03-02 08:35:00,
2013-03-02 04:00:00,39.4,28.9,29.87,North,0,0.2,0.2,66,0.00,,,0.00,WUHU216HW,2013-03-02 09:00:00,
2013-03-02 04:05:00,39.4,28.9,29.87,North,0,0.2,0.2,66,0.00,,,0.00,WUHU216HW,2013-03-02 09:05:00,
2013-03-02 04:30:00,39.2,28.7,29.87,NNE,23,0.4,0.4,66,0.00,,,0.00,WUHU216HW,2013-03-02 09:30:00,
2013-03-02 04:35:00,39.2,28.7,29.87,NNE,23,0.4,0.4,66,0.00,,,0.00,WUHU216HW,2013-03-02 09:35:00,
2013-03-02 05:00:00,39.1,29.0,29.85,ENE,68,0.7,0.7,67,0.00,,,0.00,WUHU216HW,2013-03-02 10:00:00,
2013-03-02 05:05:00,39.1,29.0,29.85,ENE,68,0.7,0.7,67,0.00,,,0.00,WUHU216HW,2013-03-02 10:05:00,
2013-03-02 05:30:00,38.3,28.7,29.86,NNE,23,0.0,0.0,68,0.00,,,0.00,WUHU216HW,2013-03-02 10:30:00,
2013-03-02 05:35:00,38.3,28.7,29.86,NNE,23,0.0,0.0,68,0.00,,,0.00,WUHU216HW,2013-03-02 10:35:00,
2013-03-02 06:00:00,37.6,28.8,29.86,NNE,23,0.4,0.4,70,0.00,,,0.00,WUHU216HW,2013-03-02 11:00:00,
2013-03-02 06:05:00,37.6,28.8,29.86,NNE,23,0.4,0.4,70,0.00,,,0.00,WUHU216HW,2013-03-02 11:05:00,
2013-03-02 06:30:00,37.6,29.4,29.87,ENE,68,0.0,0.0,72,0.00,,,0.00,WUHU216HW,2013-03-02 11:30:00,
2013-03-02 06:35:00,37.6,29.4,29.87,ENE,68,0.0,0.0,72,0.00,,,0.00,WUHU216HW,2013-03-02 11:35:00,
2013-03-02 07:00:00,37.4,29.6,29.87,NE,45,0.2,0.2,73,0.00,,,0.00,WUHU216HW,2013-03-02 12:00:00,
2013-03-02 07:05:00,37.4,29.6,29.87,NE,45,0.2,0.2,73,0.00,,,0.00,WUHU216HW,2013-03-02 12:05:00,
2013-03-02 07:30:00,37.8,30.0,29.87,NE,45,0.9,0.9,73,0.00,,,0.00,WUHU216HW,2013-03-02 12:30:00,
2013-03-02 07:35:00,37.8,30.0,29.87,NE,45,0.9,0.9,73,0.00,,,0.00,WUHU216HW,2013-03-02 12:35:00,
2013-03-02 08:00:00,38.2,30.6,29.88,NE,45,0.4,0.4,74,0.00,,,0.00,WUHU216HW,2013-03-02 13:00:00,
2013-03-02 08:05:00,38.2,30.6,29.88,NE,45,0.4,0.4,74,0.00,,,0.00,WUHU216HW,2013-03-02 13:05:00,
2013-03-02 08:30:00,38.5,30.6,29.88,NE,45,0.0,0.0,73,0.00,,,0.00,WUHU216HW,2013-03-02 13:30:00,
2013-03-02 08:35:00,38.5,30.6,29.88,NE,45,0.0,0.0,73,0.00,,,0.00,WUHU216HW,2013-03-02 13:35:00,
2013-03-02 09:00:00,39.2,31.0,29.88,NE,45,0.4,0.4,72,0.00,,,0.00,WUHU216HW,2013-03-02 14:00:00,
2013-03-02 09:06:00,39.2,31.0,29.88,NE,45,0.4,0.4,72,0.00,,,0.00,WUHU216HW,2013-03-02 14:06:00,
2013-03-02 09:30:00,41.4,32.8,29.87,NE,45,0.2,0.2,71,0.00,,,0.00,WUHU216HW,2013-03-02 14:30:00,
2013-03-02 09:35:00,41.4,32.8,29.87,NE,45,0.2,0.2,71,0.00,,,0.00,WUHU216HW,2013-03-02 14:35:00,
2013-03-02 10:00:00,42.3,31.3,29.87,NE,45,2.2,2.2,65,0.00,,,0.00,WUHU216HW,2013-03-02 15:00:00,
2013-03-02 10:05:00,42.3,31.3,29.87,NE,45,2.2,2.2,65,0.00,,,0.00,WUHU216HW,2013-03-02 15:05:00,
2013-03-02 10:30:00,43.7,29.9,29.87,NNW,338,2.9,2.9,58,0.00,,,0.00,WUHU216HW,2013-03-02 15:30:00,
2013-03-02 10:35:00,43.7,29.9,29.87,NNW,338,2.9,2.9,58,0.00,,,0.00,WUHU216HW,2013-03-02 15:35:00,
2013-03-02 11:00:00,46.3,30.0,29.86,North,0,1.8,1.8,53,0.00,,,0.00,WUHU216HW,2013-03-02 16:00:00,
2013-03-02 11:05:00,46.3,30.0,29.86,North,0,1.8,1.8,53,0.00,,,0.00,WUHU216HW,2013-03-02 16:05:00,
2013-03-02 11:30:00,46.1,28.4,29.87,North,0,1.3,1.3,50,0.00,,,0.00,WUHU216HW,2013-03-02 16:30:00,
2013-03-02 11:35:00,46.1,28.4,29.87,North,0,1.3,1.3,50,0.00,,,0.00,WUHU216HW,2013-03-02 16:35:00,
2013-03-02 12:00:00,45.7,28.6,29.87,NE,45,4.7,4.7,51,0.00,,,0.00,WUHU216HW,2013-03-02 17:00:00,
2013-03-02 12:05:00,45.7,28.6,29.87,NE,45,4.7,4.7,51,0.00,,,0.00,WUHU216HW,2013-03-02 17:05:00,
2013-03-02 12:30:00,45.5,29.8,29.86,North,0,1.8,1.8,54,0.00,,,0.00,WUHU216HW,2013-03-02 17:30:00,
2013-03-02 12:35:00,45.5,29.8,29.86,North,0,1.8,1.8,54,0.00,,,0.00,WUHU216HW,2013-03-02 17:35:00,
2013-03-02 13:00:00,47.3,31.0,29.85,NW,315,4.5,4.5,53,0.00,,,0.00,WUHU216HW,2013-03-02 18:00:00,
2013-03-02 13:05:00,47.3,31.0,29.85,NW,315,4.5,4.5,53,0.00,,,0.00,WUHU216HW,2013-03-02 18:05:00,
2013-03-02 13:30:00,46.4,29.7,29.84,North,0,1.6,1.6,52,0.00,,,0.00,WUHU216HW,2013-03-02 18:30:00,
2013-03-02 13:35:00,46.4,29.7,29.84,North,0,1.6,1.6,52,0.00,,,0.00,WUHU216HW,2013-03-02 18:35:00,
2013-03-02 14:00:00,47.3,30.1,29.83,SE,135,0.4,0.4,51,0.00,,,0.00,WUHU216HW,2013-03-02 19:00:00,
2013-03-02 14:05:00,47.3,30.1,29.83,SE,135,0.4,0.4,51,0.00,,,0.00,WUHU216HW,2013-03-02 19:05:00,
2013-03-02 14:30:00,47.5,30.3,29.83,NW,315,1.3,1.3,51,0.00,,,0.00,WUHU216HW,2013-03-02 19:30:00,
2013-03-02 14:35:00,47.5,30.3,29.83,NW,315,1.3,1.3,51,0.00,,,0.00,WUHU216HW,2013-03-02 19:35:00,
2013-03-02 15:00:00,47.0,31.2,29.82,NW,315,3.1,3.1,54,0.00,,,0.00,WUHU216HW,2013-03-02 20:00:00,
2013-03-02 15:05:00,47.0,31.2,29.82,NW,315,3.1,3.1,54,0.00,,,0.00,WUHU216HW,2013-03-02 20:05:00,
2013-03-02 15:30:00,46.8,30.1,29.82,NNW,338,0.9,0.9,52,0.00,,,0.00,WUHU216HW,2013-03-02 20:30:00,
2013-03-02 15:35:00,46.8,30.1,29.82,NNW,338,0.9,0.9,52,0.00,,,0.00,WUHU216HW,2013-03-02 20:35:00,
2013-03-02 16:00:00,47.5,30.3,29.82,WSW,248,1.1,1.1,51,0.00,,,0.00,WUHU216HW,2013-03-02 21:00:00,
2013-03-02 16:05:00,47.5,30.3,29.82,WSW,248,1.1,1.1,51,0.00,,,0.00,WUHU216HW,2013-03-02 21:05:00,
2013-03-02 16:30:00,47.2,29.9,29.82,WSW,248,0.7,0.7,51,0.00,,,0.00,WUHU216HW,2013-03-02 21:30:00,
2013-03-02 16:35:00,47.2,29.9,29.82,WSW,248,0.7,0.7,51,0.00,,,0.00,WUHU216HW,2013-03-02 21:35:00,
2013-03-02 17:00:00,47.2,30.3,29.82,NW,315,1.6,1.6,52,0.00,,,0.00,WUHU216HW,2013-03-02 22:00:00,
2013-03-02 17:05:00,47.2,30.3,29.82,NW,315,1.6,1.6,52,0.00,,,0.00,WUHU216HW,2013-03-02 22:05:00,
2013-03-02 17:30:00,47.0,30.7,29.83,West,270,1.8,1.8,53,0.00,,,0.00,WUHU216HW,2013-03-02 22:30:00,
2013-03-02 17:35:00,47.0,30.7,29.83,West,270,1.8,1.8,53,0.00,,,0.00,WUHU216HW,2013-03-02 22:35:00,
2013-03-02 18:00:00,45.2,30.3,29.83,SSW,203,0.2,0.2,56,0.00,,,0.00,WUHU216HW,2013-03-02 23:00:00,
2013-03-02 18:05:00,45.2,30.3,29.83,SSW,203,0.2,0.2,56,0.00,,,0.00,WUHU216HW,2013-03-02 23:05:00,
2013-03-02 18:30:00,42.1,29.3,29.83,WSW,248,0.2,0.2,60,0.00,,,0.00,WUHU216HW,2013-03-02 23:30:00,
2013-03-02 18:35:00,42.1,29.3,29.83,WSW,248,0.2,0.2,60,0.00,,,0.00,WUHU216HW,2013-03-02 23:35:00,
2013-03-02 19:00:00,39.6,28.0,29.85,West,270,0.0,0.0,63,0.00,,,0.00,WUHU216HW,2013-03-03 00:00:00,
2013-03-02 19:05:00,39.6,28.0,29.85,West,270,0.0,0.0,63,0.00,,,0.00,WUHU216HW,2013-03-03 00:05:00,
2013-03-02 19:30:00,38.0,27.2,29.85,WSW,248,0.4,0.4,65,0.00,,,0.00,WUHU216HW,2013-03-03 00:30:00,
2013-03-02 19:35:00,38.0,27.2,29.85,WSW,248,0.4,0.4,65,0.00,,,0.00,WUHU216HW,2013-03-03 00:35:00,
2013-03-02 19:59:00,36.9,27.7,29.85,SW,225,0.4,0.4,69,0.00,,,0.00,WUHU216HW,2013-03-03 00:59:00,
2013-03-02 20:00:00,36.9,27.7,29.85,SW,225,0.4,0.4,69,0.00,,,0.00,WUHU216HW,2013-03-03 01:00:00,
2013-03-02 20:05:00,36.9,27.7,29.85,SW,225,0.4,0.4,69,0.00,,,0.00,WUHU216HW,2013-03-03 01:05:00,
2013-03-02 20:30:00,36.9,28.7,29.86,WSW,248,0.7,0.7,72,0.00,,,0.00,WUHU216HW,2013-03-03 01:30:00,
2013-03-02 20:35:00,36.9,28.7,29.86,WSW,248,0.7,0.7,72,0.00,,,0.00,WUHU216HW,2013-03-03 01:35:00,
2013-03-02 20:59:00,40.1,32.1,29.88,West,270,0.7,0.7,73,0.00,,,0.00,WUHU216HW,2013-03-03 01:59:00,
2013-03-02 21:00:00,40.1,32.1,29.88,West,270,0.7,0.7,73,0.00,,,0.00,WUHU216HW,2013-03-03 02:00:00,
2013-03-02 21:05:00,40.1,32.1,29.88,West,270,0.7,0.7,73,0.00,,,0.00,WUHU216HW,2013-03-03 02:05:00,
2013-03-02 21:30:00,40.7,32.3,29.88,WSW,248,1.1,1.1,72,0.00,,,0.00,WUHU216HW,2013-03-03 02:30:00,
2013-03-02 21:35:00,40.7,32.3,29.88,WSW,248,1.1,1.1,72,0.00,,,0.00,WUHU216HW,2013-03-03 02:35:00,
2013-03-02 21:59:00,40.9,32.5,29.88,WSW,248,1.1,1.1,72,0.00,,,0.00,WUHU216HW,2013-03-03 02:59:00,
2013-03-02 22:00:00,40.9,32.5,29.88,WSW,248,1.1,1.1,72,0.00,,,0.00,WUHU216HW,2013-03-03 03:00:00,
2013-03-02 22:05:00,40.9,32.5,29.88,WSW,248,1.1,1.1,72,0.00,,,0.00,WUHU216HW,2013-03-03 03:05:00,
2013-03-02 22:30:00,41.0,33.7,29.88,WSW,248,0.4,0.4,75,0.00,,,0.00,WUHU216HW,2013-03-03 03:30:00,
2013-03-02 22:35:00,41.0,33.7,29.88,WSW,248,0.4,0.4,75,0.00,,,0.00,WUHU216HW,2013-03-03 03:35:00,
2013-03-02 23:30:00,40.1,33.5,29.88,NNW,338,1.8,1.8,77,0.00,,,0.00,WUHU216HW,2013-03-03 04:30:00,